Location: Alto Pass Reservoir
(37.5801°N, 89.3084°W)
Time: 09:48:39
(UTC+00:00)

Cosmos 1666 - Pass Details

Date: 05 July 2022
Orbit: 489 x 511 km, 82.5° (Epoch: 07 August)

Event Time Altitude Azimuth Distance (km) Brightness Sun altitude
Exits shadow 08:15:07 19° 124° (SE) 1,224 4.5 -22.0°
Maximum altitude 08:16:31 25° 90° (E) 1,056 4.6 -21.8°
Drops below altitude 10° 08:19:36 10° 35° (NE) 1,706 6.5 -21.5°
Sets 08:21:58 0° 22° (NNE) 2,590 7.7 -21.2°
